Location: El Centro
(32.7920°N, 115.5620°W)
Time: 17:13:28
(UTC-07:00)

Amateur Radio Satellites - All Passes

Search period start: 17 April 2014 16:43
Search period end: 18 April 2014 16:43
Location: El Centro, 32.7920°N, 115.5620°W

Satellite Date Start Highest point End Downlink Frequencies (MHz)
Time Altitude Azimuth
OPAL 17 Apr 16:59:37 17:01:55 13° 298° (WNW) 17:04:14 ?
Hamsat 17 Apr 17:06:10 17:07:14 11° 67° (ENE) 17:08:18 145.90 MHz
UOSAT-12 17 Apr 17:06:44 17:10:29 26° 111° (ESE) 17:14:19 437.025 FM, 437.400 FM
JAS-1B 17 Apr 17:12:31 17:19:30 27° 262° (W) 17:25:41 435.800 - 435.900 CW/SSB
JAS-2 17 Apr 17:35:17 17:36:17 10° 64° (ENE) 17:37:15 435.800 - 435.900 CW/SSB, 435.910 FM
RS-15 17 Apr 17:43:01 17:53:31 54° 250° (WSW) 18:04:24 29.354 - 29.394 USB, Beacon 29.352 USB
AO-7 17 Apr 17:44:40 17:51:28 28° 262° (W) 17:58:20 29.400 - 29.500 MHz
Hamsat 17 Apr 18:38:41 18:42:44 49° 261° (W) 18:46:49 145.90 MHz
UOSAT-12 17 Apr 18:46:41 18:50:31 26° 306° (NW) 18:54:26 437.025 FM, 437.400 FM
JAS-2 17 Apr 19:14:36 19:20:49 83° 257° (WSW) 19:26:22 435.800 - 435.900 CW/SSB, 435.910 FM
STRAND 1 17 Apr 19:32:03 19:37:09 80° 284° (WNW) 19:42:13 ?
SO-67 17 Apr 19:47:19 19:50:30 34° 262° (W) 19:53:43 435.3500 MHz FM
HO-68 17 Apr 20:27:26 20:34:03 43° 68° (ENE) 20:40:41 435.675 MHz FM
Saudisat 1A 17 Apr 20:52:08 20:56:33 84° 62° (ENE) 21:00:54 436.775 MHz
FUNcube-1 17 Apr 21:30:47 21:32:52 14° 68° (ENE) 21:34:56 145.950 - 145.970 MHz USB
Oscar 11 17 Apr 21:43:39 21:47:56 74° 76° (ENE) 21:52:14 145.825 FM, Beacon 2401.500 USB
HO-68 17 Apr 22:15:44 22:21:46 30° 263° (W) 22:27:52 435.675 MHz FM
MaSat-1 17 Apr 22:16:54 22:19:27 22° 294° (WNW) 22:21:44 437.345 MHz
ISS 17 Apr 22:26:37 22:29:26 24° 37° (NE) 22:32:15 145.800 FM
FUNcube-1 17 Apr 23:04:57 23:08:56 39° 261° (W) 23:12:52 145.950 - 145.970 MHz USB
Sapphire 18 Apr 00:01:16 00:05:57 31° 108° (ESE) 00:10:39 437.095 MHz 1200 baud AX-25 AFSK
ISS 18 Apr 00:03:19 00:06:07 25° 231° (SW) 00:08:55 145.800 FM
Oscar 10/S400 18 Apr 00:03:26 00:12:02 13° 141° (SE) 00:21:14 145.825 - 145.975 CW/USB, Beacon 145.810 USB
PCSat 18 Apr 00:45:27 00:50:51 90° 115° (ESE) 00:56:18 145.825 MHz
SO-50 18 Apr 00:47:24 00:51:49 41° 58° (ENE) 00:56:16 436.795 FM
Sapphire 18 Apr 01:44:37 01:49:17 29° 303° (WNW) 01:53:59 437.095 MHz 1200 baud AX-25 AFSK
AO-27 18 Apr 01:51:53 01:55:40 20° 95° (E) 01:59:27 436.795 MHz FM
ITAMSAT 1 18 Apr 02:02:37 02:06:54 26° 97° (E) 02:11:09 435.822 SSB
Oscar 19 18 Apr 02:10:29 02:15:40 66° 102° (ESE) 02:20:48 437.125 CW, 437.150 USB
Oscar 16 18 Apr 02:18:26 02:23:39 86° 103° (ESE) 02:28:51 437.025 USB, Beacon 2401.1428
AO-Echo 18 Apr 02:25:56 02:30:15 34° 98° (E) 02:34:29 ?
SO-50 18 Apr 02:29:00 02:32:03 17° 251° (WSW) 02:35:07 436.795 FM
OPAL 18 Apr 02:29:09 02:34:06 71° 73° (ENE) 02:39:10 ?
PCSat 18 Apr 02:33:13 02:34:59 12° 311° (NW) 02:36:45 145.825 MHz
KITSAT 1 18 Apr 02:34:53 02:42:47 60° 111° (ESE) 02:50:44 435.175 FM
Uribyol 2 18 Apr 02:50:43 02:55:55 89° 104° (ESE) 03:01:06 436.500 FM
Gurwin Techsat 1B 18 Apr 03:13:47 03:18:46 40° 99° (E) 03:23:43 435.225 FM
JAS-1B 18 Apr 03:14:08 03:15:48 11° 93° (E) 03:17:30 435.800 - 435.900 CW/SSB
UOSAT-12 18 Apr 03:19:34 03:24:17 79° 61° (ENE) 03:28:57 437.025 FM, 437.400 FM
AO-27 18 Apr 03:30:30 03:35:14 38° 289° (WNW) 03:39:58 436.795 MHz FM
ITAMSAT 1 18 Apr 03:41:52 03:46:18 30° 290° (WNW) 03:50:44 435.822 SSB
Oscar 19 18 Apr 03:52:14 03:54:23 13° 296° (WNW) 03:56:32 437.125 CW, 437.150 USB
AO-7 18 Apr 03:58:21 04:04:26 22° 96° (E) 04:10:28 29.400 - 29.500 MHz
TMSAT-1 18 Apr 04:02:45 04:08:04 89° 103° (ESE) 04:13:21 436.925 FM
AO-Echo 18 Apr 04:05:25 04:08:45 19° 292° (WNW) 04:12:03 ?
Uosat F 18 Apr 04:21:13 04:26:01 45° 100° (E) 04:30:46 435.120 FM
KITSAT 1 18 Apr 04:31:51 04:38:35 28° 309° (NW) 04:45:22 435.175 FM
Gurwin Techsat 1B 18 Apr 04:54:34 04:58:24 21° 293° (WNW) 05:02:13 435.225 FM
JAS-1B 18 Apr 05:01:16 05:06:52 66° 286° (WNW) 05:12:47 435.800 - 435.900 CW/SSB
AO-40 18 Apr 05:30:40 07:48:35 42° 192° (SSW) 13:39:09 Beacon 2401.320
RS-15 18 Apr 05:49:10 05:59:16 38° 107° (ESE) 06:08:59 29.354 - 29.394 USB, Beacon 29.352 USB
AO-7 18 Apr 05:49:25 05:57:37 67° 290° (WNW) 06:05:50 29.400 - 29.500 MHz
Uosat F 18 Apr 06:01:17 06:04:23 17° 294° (WNW) 06:07:30 435.120 FM
Hamsat 18 Apr 06:28:55 06:33:01 39° 98° (E) 06:37:06 145.90 MHz
JAS-2 18 Apr 06:29:52 06:32:25 13° 95° (E) 06:35:03 435.800 - 435.900 CW/SSB, 435.910 FM
STRAND 1 18 Apr 06:43:28 06:48:36 88° 257° (WSW) 06:53:44 ?
MaSat-1 18 Apr 06:44:54 06:46:17 12° 64° (ENE) 06:47:46 437.345 MHz
SO-67 18 Apr 07:16:33 07:19:15 21° 96° (E) 07:21:55 435.3500 MHz FM
PANSAT 18 Apr 07:34:47 07:36:04 11° 156° (SSE) 07:37:20 not established
AO-7 18 Apr 07:46:33 07:48:51 11° 308° (NW) 07:51:08 29.400 - 29.500 MHz
RS-15 18 Apr 08:00:07 08:11:09 54° 304° (NW) 08:21:52 29.354 - 29.394 USB, Beacon 29.352 USB
Hamsat 18 Apr 08:06:16 08:08:38 15° 292° (WNW) 08:11:00 145.90 MHz
JAS-2 18 Apr 08:12:19 08:17:41 63° 285° (WNW) 08:23:38 435.800 - 435.900 CW/SSB, 435.910 FM
MaSat-1 18 Apr 08:21:54 08:24:37 25° 250° (WSW) 08:27:45 437.345 MHz
SO-67 18 Apr 08:50:00 08:52:13 16° 289° (WNW) 08:54:25 435.3500 MHz FM
Sapphire 18 Apr 08:55:50 08:57:22 11° 48° (NE) 08:58:54 437.095 MHz 1200 baud AX-25 AFSK
PANSAT 18 Apr 09:12:22 09:15:46 30° 167° (SSE) 09:19:11 not established
Oscar 11 18 Apr 09:36:46 09:39:52 19° 95° (E) 09:42:58 145.825 FM, Beacon 2401.500 USB
PCSat 18 Apr 09:38:24 09:43:03 28° 57° (ENE) 09:47:40 145.825 MHz
HO-68 18 Apr 09:46:51 09:54:01 68° 103° (ESE) 10:01:09 435.675 MHz FM
RS-15 18 Apr 10:21:18 10:26:46 15° 332° (NNW) 10:32:14 29.354 - 29.394 USB, Beacon 29.352 USB
KITSAT 1 18 Apr 10:35:08 10:39:18 15° 41° (NE) 10:43:25 435.175 FM
Sapphire 18 Apr 10:36:05 10:41:32 88° 65° (ENE) 10:46:56 437.095 MHz 1200 baud AX-25 AFSK
PANSAT 18 Apr 10:52:01 10:55:42 43° 179° (S) 10:59:23 not established
Saudisat 1A 18 Apr 10:54:21 10:58:45 65° 116° (ESE) 11:03:11 436.775 MHz
FUNcube-1 18 Apr 10:58:10 11:02:20 52° 100° (E) 11:06:35 145.950 - 145.970 MHz USB
Oscar 11 18 Apr 11:12:17 11:16:02 29° 288° (WNW) 11:19:46 145.825 FM, Beacon 2401.500 USB
PCSat 18 Apr 11:21:39 11:26:24 32° 252° (WSW) 11:31:08 145.825 MHz
HO-68 18 Apr 11:36:10 11:41:00 20° 299° (WNW) 11:45:51 435.675 MHz FM
KITSAT 1 18 Apr 12:28:06 12:36:12 70° 62° (ENE) 12:44:12 435.175 FM
PANSAT 18 Apr 12:32:11 12:35:38 31° 192° (SSW) 12:39:05 not established
Saudisat 1A 18 Apr 12:36:54 12:38:46 12° 312° (NW) 12:40:38 436.775 MHz
FUNcube-1 18 Apr 12:37:19 12:38:18 11° 293° (WNW) 12:39:17 145.950 - 145.970 MHz USB
AO-27 18 Apr 13:06:06 13:09:53 21° 67° (ENE) 13:13:41 436.795 MHz FM
ITAMSAT 1 18 Apr 13:16:36 13:20:49 26° 69° (ENE) 13:25:03 435.822 SSB
Oscar 19 18 Apr 13:22:58 13:28:00 60° 74° (ENE) 13:33:04 437.125 CW, 437.150 USB
Oscar 16 18 Apr 13:30:57 13:36:04 79° 76° (ENE) 13:41:13 437.025 USB, Beacon 2401.1428
AO-Echo 18 Apr 13:34:15 13:38:50 31° 71° (ENE) 13:43:21 ?
JAS-1B 18 Apr 13:57:23 13:58:13 10° 61° (ENE) 13:59:03 435.800 - 435.900 CW/SSB
Uribyol 2 18 Apr 14:04:11 14:09:21 86° 76° (ENE) 14:14:32 436.500 FM
PANSAT 18 Apr 14:13:40 14:15:22 13° 203° (SSW) 14:17:03 not established
KITSAT 1 18 Apr 14:25:18 14:30:46 20° 257° (WSW) 14:36:13 435.175 FM
Gurwin Techsat 1B 18 Apr 14:30:33 14:35:30 41° 72° (ENE) 14:40:28 435.225 FM
OPAL 18 Apr 14:43:57 14:48:25 28° 99° (E) 14:52:51 ?
AO-27 18 Apr 14:44:17 14:49:06 38° 261° (W) 14:53:56 436.795 MHz FM
AO-7 18 Apr 14:53:30 14:59:21 22° 58° (ENE) 15:05:12 29.400 - 29.500 MHz
RS-15 18 Apr 14:55:11 15:04:30 31° 46° (NE) 15:13:55 29.354 - 29.394 USB, Beacon 29.352 USB
ITAMSAT 1 18 Apr 14:55:38 15:00:09 30° 262° (W) 15:04:41 435.822 SSB
SO-50 18 Apr 14:58:31 15:02:37 36° 113° (ESE) 15:06:44 436.795 FM
ISS 18 Apr 15:05:35 15:08:55 89° 133° (SE) 15:12:16 145.800 FM
Oscar 19 18 Apr 15:05:38 15:07:39 12° 268° (W) 15:09:42 437.125 CW, 437.150 USB
AO-Echo 18 Apr 15:13:10 15:17:31 26° 264° (W) 15:21:49 ?
TMSAT-1 18 Apr 15:19:01 15:24:19 89° 76° (ENE) 15:29:38 436.925 FM
Uosat F 18 Apr 15:30:15 15:34:54 39° 72° (ENE) 15:39:34 435.120 FM
JAS-1B 18 Apr 15:39:28 15:48:00 72° 74° (ENE) 15:55:05 435.800 - 435.900 CW/SSB
Gurwin Techsat 1B 18 Apr 16:11:51 16:15:34 19° 265° (W) 16:19:18 435.225 FM
OPAL 18 Apr 16:22:44 16:27:10 29° 292° (WNW) 16:31:35 ?
